Location: Dornbirn
(47.4124°N, 9.7438°E)
Time: 07:54:46
(UTC+01:00)

ISS - Visible Passes

Search period start: 17 December 2018 00:00
Search period end: 27 December 2018 00:00
Orbit: 401 x 408 km, 51.6° (Epoch: 18 December)

Date Brightness Start Highest point End Pass type
(mag) Time Alt. Az. Time Alt. Az. Time Alt. Az.
22 Dec -0.4 07:04:48 10° SSE 07:06:26 13° SE 07:08:04 10° ESE visible
24 Dec -1.5 06:55:18 10° SSW 06:58:06 26° SE 07:00:55 10° E visible
25 Dec -0.8 06:03:57 10° S 06:06:02 16° SE 06:08:08 10° E visible
26 Dec -3.0 06:46:39 10° SW 06:49:52 52° SSE 06:53:05 10° ENE visible
